Вернуться в каталог

COSMOS 2251 DEB

АктивенLEO
NORAD 33906·DEBRIS·🇷🇺 Russia

Запущен Jun 16, 1993 с Plesetsk Cosmodrome

Loading…

Ближайшие Пролёты (ближайшие 24 часа)

TLE

СвежийSource: Space-Track

Эпоха: Sep 14, 2026, 11:51 UTC

1 33906U 93036DK  26257.49386847  .00004259  00000-0  87138-3 0  9993
2 33906  74.0285 155.6599 0034065 126.8966  47.6161 14.60755477920300

Отслеживайте COSMOS 2251 DEB в реальном времени с AllMySat

Download on the App Store